Weather Roundup
Issued by NWS

Home | Current Version | Previous Version | Graphics & Text | Print | Product List | Glossary Off
Versions: 1 2 3 4 5 6 7 8 9 10 11 12 13 14 15 16 17 18 19 20 21 22 23 24 25 26 27 28 29 30 31 32 33 34 35 36 37 38 39 40 41 42 43 44 45 46 47 48 49 50

000
NZUS93 KARX 200510
HRRWXR

CURRENT HOURLY OBSERVATIONS ACROSS
MUCH OF THE UPPER MISSISSIPPI VALLEY
NATIONAL WEATHER SERVICE LA CROSSE WI
1100 PM CST MON FEB 19 2018


...SOUTHEAST MINNESOTA...


CITY           SKY/WX    TMP DP  RH WIND       PRES   REMARKS
ROCHESTER      LGT SNOW  24  24 100 N9        29.81R FOG     WCI  14
ROCHESTER/MAYO CLOUDY    24  24 100 N3        29.83R
WINONA         CLOUDY    30  30 100 NE5       29.82R WCI  25
AUSTIN         CLOUDY    25  23  93 NE5       29.80S FOG     WCI  19
ALBERT LEA     CLOUDY    23  21  93 NE7       29.81F WCI  15
DODGE CENTER   CLOUDY    21  21 100 N8        29.81R FOG     WCI  12
PRESTON        FOG       27  26  96 N8        29.80R VSB 1   WCI  19
OWATONNA       CLOUDY    21  21 100 N7        29.82F FOG     WCI  13
FARIBAULT      CLOUDY    19  19 100 N7        29.86S FOG     WCI  10
$$

...ELSEWHERE IN MINNESOTA...


CITY           SKY/WX    TMP DP  RH WIND       PRES   REMARKS
MINNEAPOLIS    FRZ DRZL  20  19  96 NE12      29.91R WCI   8
INTNL FALLS    CLOUDY     7  -2  66 NE9       30.12F WCI  -7
DULUTH         LGT SNOW  14   9  80 NE20      29.97S WCI  -3
RED WING       CLOUDY    23  18  80 NE7       29.86S HAZE    WCI  15
REDWOOD FALLS  CLOUDY    15  14  95 NE9       29.89F WCI   3
MANKATO        LGT SNOW  20  18  92 NE12      29.87F FOG     WCI   8
WORTHINGTON    FLURRIES  15  13  91 N12       29.88R WCI   2
FAIRMONT       CLOUDY    19  18  95 N10       29.86R FOG     WCI   7
$$

...SOUTHWEST WISCONSIN...


CITY           SKY/WX    TMP DP  RH WIND       PRES   REMARKS
LA CROSSE      CLOUDY    32  31  96 N3        29.81S FOG
PRAIRIE DU CHI FOG       35  34  96 CALM      29.79R VSB 1/2
BOSCOBEL       FOG       36  35  96 CALM      29.80R VSB 3/4
LONE ROCK      CLOUDY    34  34 100 E5        29.79R FOG     WCI  30
PLATTEVILLE    CLOUDY    37  37 100 SW5       29.77F VSB 1/4 WCI  33
FORT MC COY    CLOUDY    29  29  99 NE6       29.82S FOG     WCI  23
CAMP DOUGLAS   FRZ DRZL  30  30  99 CALM      29.81R
MAUSTON-NEW LI CLOUDY    30  30  98 NE3       29.80S FOG
VIROQUA        CLOUDY    31  31 100 NE9       29.77S WCI  23
WIS DELLS      FOG       30  29  97 NE7       29.79R VSB 1   WCI  23
$$

...ELSEWHERE IN WISCONSIN...


CITY           SKY/WX    TMP DP  RH WIND       PRES   REMARKS
MILWAUKEE      DRZL/FOG  37  36  96 CALM      29.78S VSB 1
MADISON        DRIZZLE   34  34 100 N3        29.78R FOG
GREEN BAY      CLOUDY    28  26  92 N12       29.83F WCI  18
EAU CLAIRE     CLOUDY    22  19  89 NE10      29.87R WCI  11
BLACK RVR FLS  CLOUDY    29  29 100 NE8       29.82S FOG     WCI  21
MEDFORD        CLOUDY    21  19  93 NE8       29.82F WCI  11
WAUSAU         CLOUDY    26  25  96 NE7       29.82F FOG     WCI  18
WIS RAPIDS     CLOUDY    27  24  89 NE7       29.83S FOG     WCI  19
MARSHFIELD     CLOUDY    26  25  96 NE12      29.80F FOG     WCI  16
RICE LAKE      CLOUDY    19  17  94 N10       29.91F FOG     WCI   7
$$

...NORTHEAST IOWA...


CITY           SKY/WX    TMP DP  RH WIND       PRES   REMARKS
WATERLOO       CLOUDY    32  32 100 W8        29.80R FOG     WCI  25
DUBUQUE        CLOUDY    36  34  92 W9        29.77S WCI  29
DECORAH        CLOUDY    34  34 100 NE6       29.76R WCI  29
MASON CITY     CLOUDY    26  24  92 N8        29.82R WCI  18
CHARLES CITY   CLOUDY    30  30 100 N8        29.80R FOG     WCI  23
OELWEIN        FOG       34  34 100 W6        29.77F VSB<1/4 WCI  29
$$

...ELSEWHERE IN IOWA...


CITY           SKY/WX    TMP DP  RH WIND       PRES   REMARKS
DES MOINES     FLURRIES  28  26  92 N8        29.80F WCI  20
IOWA CITY      CLOUDY    36  32  85 W7        29.83R WCI  30
FORT DODGE     CLOUDY    25  24  96 N7        29.82F FOG     WCI  17
MARSHALLTOWN   CLOUDY    31  31 100 W9        29.80S FOG     WCI  23
CEDAR RAPIDS   CLOUDY    34  33  96 W9        29.79S FOG     WCI  27
$$

...NORTHERN ILLINOIS...


CITY           SKY/WX    TMP DP  RH WIND       PRES   REMARKS
CHICAGO-OHARE  LGT RAIN  59  56  89 S16       29.81S
CHICAGO-MIDWAY LGT RAIN  60  58  92 S12       29.82S
MOLINE         RAIN      43  42  97 W7        29.79S FOG
ROCKFORD       LGT RAIN  49  49 100 S13       29.79R VSB 1/8
PEORIA         LGT RAIN  61  58  90 SW16G28   29.80R
$$

NOTE: "FAIR" INDICATES FEW OR NO CLOUDS BELOW 12,000 FEET WITH NO
SIGNIFICANT WEATHER AND/OR OBSTRUCTIONS TO VISIBILITY. WIND
SPEEDS ARE IN MILES-PER-HOUR.




USA.gov is the U.S. government's official web portal to all federal, state and local government web resources and services.